Regional Weather Roundup
Issued by NWS Goodland, KS

Home | Current Version | Previous Version | Text Only | Print | Product List | Glossary Off
Versions: 1 2 3 4 5 6 7 8 9 10 11 12 13 14 15 16 17 18 19 20 21 22 23 24 25 26 27 28 29 30 31 32 33 34 35 36 37 38 39 40 41 42 43 44 45 46 47 48 49 50

000
ASUS43 KGLD 300608
RWRGLD

GOODLAND FORECAST AREA HOURLY WEATHER ROUNDUP
NATIONAL WEATHER SERVICE GOODLAND KS
1200 AM MDT MON MAR 30 2015

...OFFICIAL OBSERVATIONS...

CITY           SKY/WX    TMP DP  RH WIND       PRES   REMARKS
GOODLAND KS    MOCLDY    44  21  40 S13       30.19F
HILL CITY KS   CLEAR     33  15  47 W5        30.21R
IMPERIAL NEB     N/A     44  20  38 S9        30.15
MCCOOK NEB     CLEAR     44  16  32 S8        30.17S
AKRON CO       PTCLDY    45  23  42 S13       30.15F
BURLINGTON CO  PTCLDY    41  22  46 S13       30.19F
LIMON CO       CLEAR     39  23  52 S8        30.21S
$$

...UNOFFICIAL OBSERVATIONS...

CITY           SKY/WX    TMP DP  RH WIND       PRES   REMARKS
LENORA KS        N/A     43  32  65 MISG        N/A
TRIBUNE KS     CLEAR     43  28  56 S10       30.23S
$$


USA.gov is the U.S. government's official web portal to all federal, state and local government web resources and services.